Qaanaaq Airport,

12:52 AM AST on February 23, 2018 (GMT -0400)
Qaanaaq Airport

Weather History for BGQQ - September, 2013

Change the Weather History Date:

Thursday, September 12, 2013

  Actual Average Record
Temperature  
Mean Temperature 30 °F -  
Max Temperature 33 °F - - ()
Min Temperature 28 °F - - ()
Degree Days  
Heating Degree Days 34    
Moisture  
Dew Point 23 °F    
Average Humidity 71    
Maximum Humidity 80    
Minimum Humidity 60    
Precipitation  
Precipitation 0.00 in - - ()
Sea Level Pressure  
Sea Level Pressure 29.56 in    
Wind  
Wind Speed 2 mph ()    
Max Wind Speed 5 mph    
Max Gust Speed -    
Visibility 6.2 miles    
Events      
T = Trace of Precipitation, MM = Missing Value Source: Averaged Metar Reports

Daily Weather History Graph

Daily Weather History Graph

Search for Another Location

Airport or City:

Trip Planner

Search our weather history database for the weather conditions in past years. The results will help you decide how hot, cold, wet, or windy it might be!

Date:

Astronomy

Sep. 12, 2013 Rise Set
Actual Time 6:02 AM ADT 8:59 PM ADT
Civil Twilight 3:59 AM ADT 10:58 PM ADT
Nautical Twilight Sun does not rise Sun does not rise
Astronomical Twilight Sun does not rise Sun does not rise
Moon No Moon Rise No Moon Set
Length of Visible Light 18h 58m
Length of Day
14h 56m
Waxing Crescent, 49% of the Moon is Illuminated
Sep 12
Waxing Crescent
Sep 12
First Quarter
Sep 19
Full
Sep 27
Last Quarter
Oct 4
New

Hourly Weather History & Observations

Time (ADT) Temp. Windchill Dew Point Humidity Pressure Visibility Wind Dir Wind Speed Gust Speed Precip Events Conditions
12:20 AM 28.4 °F - 19.4 °F 69% 29.36 in 6.2 mi Variable 1.2 mph - N/A   Unknown
12:50 AM 30.2 °F - 19.4 °F 64% 29.39 in 6.2 mi NNE 1.2 mph - N/A   Unknown
1:20 AM 30.2 °F - 17.6 °F 60% 29.39 in 6.2 mi NNE 1.2 mph - N/A   Unknown
1:50 AM 28.4 °F - 19.4 °F 69% 29.39 in 6.2 mi NNE 2.3 mph - N/A   Unknown
2:20 AM 28.4 °F - 21.2 °F 74% 29.42 in 6.2 mi Variable 1.2 mph - N/A   Unknown
2:50 AM 28.4 °F - 19.4 °F 69% 29.42 in 6.2 mi NNE 1.2 mph - N/A   Unknown
3:20 AM 28.4 °F - 19.4 °F 69% 29.42 in 6.2 mi NNE 2.3 mph - N/A   Unknown
3:50 AM 28.4 °F - 19.4 °F 69% 29.44 in 6.2 mi Calm Calm - N/A   Unknown
4:20 AM 28.4 °F - 19.4 °F 69% 29.44 in 6.2 mi NNE 2.3 mph - N/A   Unknown
4:50 AM 28.4 °F - 19.4 °F 69% 29.44 in 6.2 mi NNE 2.3 mph - N/A   Unknown
5:20 AM 30.2 °F 25.4 °F 21.2 °F 69% 29.47 in 6.2 mi NNE 4.6 mph - N/A   Unknown
5:50 AM 30.2 °F 26.7 °F 21.2 °F 69% 29.47 in 6.2 mi NNE 3.5 mph - N/A   Unknown
6:20 AM 30.2 °F 26.7 °F 21.2 °F 69% 29.47 in 6.2 mi NNE 3.5 mph - N/A   Unknown
6:50 AM 30.2 °F 25.4 °F 21.2 °F 69% 29.50 in 6.2 mi NNE 4.6 mph - N/A   Unknown
7:20 AM 30.2 °F - 23.0 °F 75% 29.50 in 6.2 mi NNE 2.3 mph - N/A   Mostly Cloudy
7:50 AM 30.2 °F - 19.4 °F 64% 29.50 in 6.2 mi NNE 2.3 mph - N/A   Mostly Cloudy
8:50 AM 32.0 °F - 21.2 °F 64% 29.53 in 6.2 mi NNE 1.2 mph - N/A   Mostly Cloudy
9:50 AM 32.0 °F - 21.2 °F 64% 29.53 in 6.2 mi East 2.3 mph - N/A   Mostly Cloudy
10:50 AM 32.0 °F - 24.8 °F 75% 29.56 in 6.2 mi East 1.2 mph - N/A   Mostly Cloudy
11:50 AM 33.8 °F - 24.8 °F 70% 29.56 in 6.2 mi East 2.3 mph - N/A   Mostly Cloudy
12:50 PM 33.8 °F - 24.8 °F 70% 29.59 in 6.2 mi East 1.2 mph - N/A   Mostly Cloudy
1:50 PM 33.8 °F 30.8 °F 24.8 °F 70% 29.59 in 6.2 mi NNE 3.5 mph - N/A   Mostly Cloudy
2:50 PM 33.8 °F 30.8 °F 24.8 °F 70% 29.59 in 6.2 mi NNE 3.5 mph - N/A   Mostly Cloudy
3:20 PM 33.8 °F - 24.8 °F 70% 29.62 in 6.2 mi NNE 2.3 mph - N/A   Unknown
3:50 PM 33.8 °F - 24.8 °F 70% 29.62 in 6.2 mi NNE 1.2 mph - N/A   Unknown
4:20 PM 33.8 °F - 26.6 °F 75% 29.62 in 6.2 mi NNE 2.3 mph - N/A   Unknown
4:50 PM 32.0 °F - 26.6 °F 80% 29.62 in 6.2 mi Variable 1.2 mph - N/A   Unknown
5:20 PM 33.8 °F 30.8 °F 26.6 °F 75% 29.65 in 6.2 mi NNE 3.5 mph - N/A   Unknown
5:50 PM 33.8 °F - 24.8 °F 70% 29.65 in 6.2 mi NNE 1.2 mph - N/A   Unknown
6:20 PM 32.0 °F - 26.6 °F 80% 29.65 in 6.2 mi NNE 1.2 mph - N/A   Unknown
6:50 PM 33.8 °F - 24.8 °F 70% 29.65 in 6.2 mi NNE 2.3 mph - N/A   Unknown
7:20 PM 32.0 °F - 26.6 °F 80% 29.65 in 6.2 mi NNE 1.2 mph - N/A   Unknown
7:50 PM 32.0 °F - 26.6 °F 80% 29.68 in 6.2 mi Calm Calm - N/A   Unknown
8:20 PM 32.0 °F 28.7 °F 26.6 °F 80% 29.68 in 6.2 mi NNE 3.5 mph - N/A   Unknown
8:50 PM 32.0 °F - 26.6 °F 80% 29.68 in 6.2 mi NNE 2.3 mph - N/A   Unknown
9:20 PM 32.0 °F 28.7 °F 24.8 °F 75% 29.68 in 6.2 mi NNE 3.5 mph - N/A   Unknown
9:50 PM 32.0 °F - 24.8 °F 75% 29.68 in 6.2 mi NNE 2.3 mph - N/A   Unknown
10:20 PM 32.0 °F - 23.0 °F 69% 29.68 in 6.2 mi NNE 2.3 mph - N/A   Unknown
10:50 PM 32.0 °F - 23.0 °F 69% 29.68 in 6.2 mi NNE 2.3 mph - N/A   Unknown
11:20 PM 32.0 °F - 23.0 °F 69% 29.68 in 6.2 mi Calm Calm - N/A   Unknown
11:50 PM 32.0 °F - 24.8 °F 75% 29.68 in 6.2 mi Calm Calm - N/A   Unknown